Lid_Strength_Index
1 0 1 1 0 0 0 0 0 0 0 0 0 0 0 1 1 0 0 -2 -2 -2 -2 -2 -1 -1 -1 -1 -2 -2 -2 -2 -2 -1 -1 -1 -2 -1 -2 -1 -1 -1 -1
0 1 0 1 1 0 0 0 0 0 0 0 0 0 0 1 1 1 0 -0 -1 -2 -2 -2 -2 -2 -2 -2 -2 -2 -2 -2 -1 -1 -1 -1 -1 -1 -2 -1 -1 -1 -1
1 1 2 2 1 1 1 1 1 0 1 0 1 0 1 1 0 1 0 -0 -0 -1 -2 -2 -2 -2 -2 -2 -2 -2 -2 -2 -2 -1 -1 -1 -1 -2 -1 -1 -1 -1 -1
2 2 1 2 2 1 1 1 2 1 1 1 1 2 2 1 1 1 1 0 0 -0 -1 -2 -2 -2 -2 -2 -2 -2 -2 -2 -2 -1 -1 -1 -1 -1 -2 -1 -1 -1 -1
1 1 2 2 2 2 1 1 2 2 2 3 2 2 2 2 1 0 1 0 0 0 0 -1 -2 -2 -2 -2 -2 -2 -2 -2 -2 -1 -1 -1 -1 -1 -1 -2 -2 -1 -1
1 2 1 2 2 2 2 1 2 2 2 2 2 2 1 1 1 1 1 1 1 1 0 -0 -0 -0 -2 -2 -2 -2 -1 -1 -2 -2 -1 -1 -1 -1 -1 -2 -2 -1 -1
1 2 2 1 1 2 2 2 2 3 2 2 3 3 2 2 2 1 1 1 1 1 1 0 0 0 -0 -2 -2 -2 -2 -1 -1 -1 -1 -1 -1 -1 -1 -2 -1 -1 -1
1 1 1 1 2 2 2 2 2 3 2 2 4 4 6 4 2 2 2 2 2 1 1 0 0 0 0 -0 -0 -2 -2 -2 -1 -2 -1 -0 -1 -1 -2 -2 -1 -1 -1
1 1 1 2 2 2 2 2 2 3 3 3 2 4 6 7 4 3 3 3 2 1 1 1 0 -0 -0 0 -0 -1 -1 -1 -1 -1 -1 -1 -1 -1 -1 -1 -1 -1 -1
1 1 1 1 2 2 3 2 2 3 3 4 3 2 3 3 5 6 4 3 2 2 2 1 1 0 1 0 -0 -1 -1 -1 -2 -1 -1 -1 -1 -1 -1 -1 -1 -1 -1
1 1 1 2 2 2 2 2 2 2 3 2 3 4 3 3 3 5 7 5 2 2 1 2 1 1 0 0 1 1 -0 -0 -0 -0 -1 -1 -1 -1 -1 -1 -1 -1 -1
2 2 1 1 1 1 2 2 1 2 2 2 3 2 3 4 5 5 6 5 5 3 2 1 2 1 0 0 0 -0 -0 0 1 -0 0 0 -1 -1 -1 -1 -1 -2 -2
3 3 2 1 1 1 1 1 2 2 2 3 3 2 3 3 3 3 4 5 5 4 3 2 2 1 -0 1 1 -1 -0 0 2 1 1 1 0 -0 -1 -1 -1 -1 -1
2 2 1 1 1 1 1 1 1 2 2 3 2 3 2 3 2 3 4 4 6 5 3 4 2 1 0 0 0 -1 0 1 2 2 3 2 1 1 0 -0 -1 -1 -1
2 1 1 1 1 1 1 2 2 2 2 2 2 2 2 2 2 2 3 3 5 7 6 4 3 1 1 1 0 0 0 1 2 3 3 2 2 2 2 1 1 0 -0
2 1 1 1 1 1 1 2 2 2 2 3 2 2 2 1 2 2 3 3 3 4 6 4 2 2 0 -0 -0 1 0 1 2 3 2 3 3 3 2 2 2 1 0
1 1 1 2 1 1 2 2 2 2 2 2 2 2 2 1 2 2 3 3 3 3 5 3 2 1 1 1 1 1 1 2 2 3 3 3 4 4 3 2 3 2 1
1 1 1 1 1 1 1 2 2 2 2 2 2 2 2 1 2 2 3 3 3 3 3 4 3 2 2 1 1 1 1 1 1 2 4 4 5 4 4 4 3 3 3
2 1 1 2 2 2 1 1 1 2 2 2 2 2 2 2 3 3 3 3 2 2 2 3 3 2 1 1 2 2 2 2 2 2 4 5 5 4 4 4 4 4 4
2 3 2 2 2 1 1 1 1 2 2 2 1 1 1 2 2 3 2 2 2 2 2 3 3 3 2 2 2 3 3 2 2 2 3 4 4 4 4 4 4 4 5
3 2 1 1 2 2 2 2 2 2 2 2 2 1 1 1 2 2 2 2 2 2 3 3 3 3 3 3 3 2 3 3 3 3 3 3 2 3 3 4 2 3 5
2 2 1 2 2 3 9 8 3 2 2 2 2 2 2 3 5 5 3 3 2 3 3 3 3 4 3 3 2 3 4 3 5 2 2 3 2 3 3 3 4 6 6
2 2 2 2 3 5 9 8 5 2 2 2 2 2 1 1 3 3 6 6 5 5 3 3 3 3 3 2 3 3 3 3 3 3 3 3 3 3 2 4 6 7 7
2 2 2 3 4 4 8 8 5 2 2 2 2 1 2 2 2 2 2 3 3 3 3 2 2 2 1 2 2 2 3 3 3 3 3 5 4 6 4 4 6 7 8
3 3 2 3 3 4 9 7 4 2 2 2 3 2 2 3 8 7 3 4 4 4 6 6 5 6 7 6 3 3 4 4 5 5 4 4 5 6 6 5 5 7 8
2 2 2 3 4 4 9 8 4 3 3 3 3 4 7 5 9 8 2 2 3 3 3 3 4 7 6 5 6 2 2 4 4 5 4 5 5 5 6 5 4 6 6